Time,TemperatureF,DewpointF,PressureIn,WindDirection,WindDirectionDegrees,WindSpeedMPH,WindSpeedGustMPH,Humidity,HourlyPrecipIn,Conditions,Clouds,dailyrainin,SoftwareType,DateUTC
2013-05-05 00:00:00,40.5,40.2,29.00,North,0,2.3,2.3,99,0.02,RA,,0.06,WeatherDisplay:10.37,2013-05-05 05:00:00,
2013-05-05 00:05:00,40.5,40.2,29.00,NW,315,3.5,3.5,99,0.02,RA,,0.00,WeatherDisplay:10.37,2013-05-05 05:05:00,
2013-05-05 00:10:00,40.3,40.0,29.00,NW,315,3.5,3.5,99,0.01,,,0.00,WeatherDisplay:10.37,2013-05-05 05:10:00,
2013-05-05 00:16:00,40.3,40.0,29.00,North,0,3.5,3.5,99,0.01,,,0.00,WeatherDisplay:10.37,2013-05-05 05:16:00,
2013-05-05 00:21:00,40.3,40.0,29.00,NW,315,3.5,3.5,99,0.01,,,0.00,WeatherDisplay:10.37,2013-05-05 05:21:00,
2013-05-05 00:26:00,40.3,40.0,29.00,North,0,3.5,3.5,99,0.01,,,0.00,WeatherDisplay:10.37,2013-05-05 05:26:00,
2013-05-05 00:31:00,40.3,40.0,29.00,North,0,3.5,3.5,99,0.01,,,0.00,WeatherDisplay:10.37,2013-05-05 05:31:00,
2013-05-05 00:36:00,40.3,40.0,29.00,North,0,3.5,3.5,99,0.01,,,0.00,WeatherDisplay:10.37,2013-05-05 05:36:00,
2013-05-05 00:42:00,40.3,40.0,29.00,NW,315,3.5,3.5,99,0.01,,,0.00,WeatherDisplay:10.37,2013-05-05 05:42:00,
2013-05-05 00:47:00,40.3,40.0,29.00,NE,45,3.5,3.5,99,0.01,,,0.00,WeatherDisplay:10.37,2013-05-05 05:47:00,
2013-05-05 00:52:00,40.3,40.0,29.00,NNW,338,2.3,2.3,99,0.01,,,0.00,WeatherDisplay:10.37,2013-05-05 05:52:00,
2013-05-05 00:58:00,40.3,40.0,29.01,North,0,2.3,2.3,99,0.01,,,0.00,WeatherDisplay:10.37,2013-05-05 05:58:00,
2013-05-05 01:03:00,40.3,40.0,29.00,North,0,1.2,0.0,99,0.00,,,0.00,WeatherDisplay:10.37,2013-05-05 06:03:00,
2013-05-05 01:08:00,40.3,40.0,29.00,NW,315,2.2,2.2,99,0.00,,,0.00,WeatherDisplay:10.37,2013-05-05 06:08:00,
2013-05-05 01:13:00,40.3,40.0,29.00,NNW,338,3.5,3.5,99,0.00,,,0.00,WeatherDisplay:10.37,2013-05-05 06:13:00,
2013-05-05 01:18:00,40.3,40.0,29.00,NW,315,3.5,3.5,99,0.00,,,0.00,WeatherDisplay:10.37,2013-05-05 06:18:00,
2013-05-05 01:23:00,40.3,40.0,29.00,NW,315,2.3,2.3,99,0.00,,,0.00,WeatherDisplay:10.37,2013-05-05 06:23:00,
2013-05-05 01:28:00,40.3,40.0,29.00,North,0,3.5,3.5,99,0.00,,,0.00,WeatherDisplay:10.37,2013-05-05 06:28:00,
2013-05-05 01:34:00,40.3,40.0,29.00,NW,315,3.5,3.5,99,0.00,,,0.00,WeatherDisplay:10.37,2013-05-05 06:34:00,
2013-05-05 01:39:00,40.3,40.0,29.00,North,0,3.5,3.5,99,0.00,,,0.00,WeatherDisplay:10.37,2013-05-05 06:39:00,
2013-05-05 01:44:00,40.3,40.0,29.00,North,0,3.5,3.5,99,0.00,,,0.00,WeatherDisplay:10.37,2013-05-05 06:44:00,
2013-05-05 01:49:00,40.3,40.0,29.00,North,0,3.5,3.5,99,0.00,,,0.00,WeatherDisplay:10.37,2013-05-05 06:49:00,
2013-05-05 01:54:00,40.3,40.0,29.00,NW,315,3.5,3.5,99,0.00,,,0.00,WeatherDisplay:10.37,2013-05-05 06:54:00,
2013-05-05 01:59:00,40.3,40.0,29.00,NW,315,3.5,3.5,99,0.00,,,0.00,WeatherDisplay:10.37,2013-05-05 06:59:00,
2013-05-05 02:04:00,40.3,40.0,28.99,NW,315,3.5,3.5,99,0.00,,,0.00,WeatherDisplay:10.37,2013-05-05 07:04:00,
2013-05-05 02:10:00,40.3,40.0,28.99,North,0,3.5,3.5,99,0.01,RA,,0.01,WeatherDisplay:10.37,2013-05-05 07:10:00,
2013-05-05 02:15:00,40.3,40.0,28.99,NNW,338,3.5,3.5,99,0.01,RA,,0.01,WeatherDisplay:10.37,2013-05-05 07:15:00,
2013-05-05 02:20:00,40.3,40.0,28.99,North,0,3.5,3.5,99,0.01,,,0.01,WeatherDisplay:10.37,2013-05-05 07:20:00,
2013-05-05 02:25:00,40.3,40.0,28.99,North,0,3.5,3.5,99,0.01,,,0.01,WeatherDisplay:10.37,2013-05-05 07:25:00,
2013-05-05 02:31:00,40.1,39.8,28.99,NW,315,3.5,3.5,99,0.01,,,0.01,WeatherDisplay:10.37,2013-05-05 07:31:00,
2013-05-05 02:36:00,40.1,39.8,28.99,NW,315,3.5,3.5,99,0.01,,,0.01,WeatherDisplay:10.37,2013-05-05 07:36:00,
2013-05-05 02:41:00,40.1,39.8,28.98,NW,315,3.5,3.5,99,0.01,,,0.01,WeatherDisplay:10.37,2013-05-05 07:41:00,
2013-05-05 02:46:00,40.1,39.8,28.98,North,0,4.6,4.6,99,0.02,RA,,0.02,WeatherDisplay:10.37,2013-05-05 07:46:00,
2013-05-05 02:51:00,40.1,39.8,28.98,North,0,4.6,4.6,99,0.02,RA,,0.02,WeatherDisplay:10.37,2013-05-05 07:51:00,
2013-05-05 02:57:00,40.1,39.8,28.99,NW,315,3.5,3.5,99,0.02,,,0.02,WeatherDisplay:10.37,2013-05-05 07:57:00,
2013-05-05 03:02:00,40.1,39.8,28.98,NW,315,3.5,3.5,99,0.02,,,0.02,WeatherDisplay:10.37,2013-05-05 08:02:00,
2013-05-05 03:07:00,40.1,39.8,28.98,NW,315,3.5,3.5,99,0.02,,,0.02,WeatherDisplay:10.37,2013-05-05 08:07:00,
2013-05-05 03:13:00,40.1,39.8,28.98,NW,315,3.5,3.5,99,0.01,,,0.02,WeatherDisplay:10.37,2013-05-05 08:13:00,
2013-05-05 03:18:00,39.9,39.7,28.98,North,0,3.5,3.5,99,0.01,,,0.02,WeatherDisplay:10.37,2013-05-05 08:18:00,
2013-05-05 03:23:00,39.9,39.7,28.98,NW,315,3.5,3.5,99,0.01,,,0.02,WeatherDisplay:10.37,2013-05-05 08:23:00,
2013-05-05 03:28:00,39.9,39.7,28.99,North,0,3.5,3.5,99,0.01,,,0.02,WeatherDisplay:10.37,2013-05-05 08:28:00,
2013-05-05 03:33:00,39.9,39.7,28.99,NW,315,3.5,3.5,99,0.01,,,0.02,WeatherDisplay:10.37,2013-05-05 08:33:00,
2013-05-05 03:39:00,39.9,39.7,28.99,North,0,3.5,3.5,99,0.01,,,0.02,WeatherDisplay:10.37,2013-05-05 08:39:00,
2013-05-05 03:44:00,39.9,39.7,28.99,North,0,3.5,3.5,99,0.01,,,0.02,WeatherDisplay:10.37,2013-05-05 08:44:00,
2013-05-05 03:49:00,39.9,39.7,28.99,NW,315,3.5,3.5,99,0.00,,,0.02,WeatherDisplay:10.37,2013-05-05 08:49:00,
2013-05-05 03:54:00,39.9,39.7,28.99,North,0,3.5,3.5,99,0.00,,,0.02,WeatherDisplay:10.37,2013-05-05 08:54:00,
2013-05-05 03:59:00,39.9,39.7,28.99,NNW,338,3.5,3.5,99,0.00,,,0.02,WeatherDisplay:10.37,2013-05-05 08:59:00,
2013-05-05 04:05:00,39.9,39.7,28.99,North,0,3.5,3.5,99,0.00,,,0.02,WeatherDisplay:10.37,2013-05-05 09:05:00,
2013-05-05 04:10:00,39.9,39.7,28.99,NW,315,3.5,3.5,99,0.00,,,0.02,WeatherDisplay:10.37,2013-05-05 09:10:00,
2013-05-05 04:15:00,39.9,39.7,28.99,NNW,338,2.3,2.3,99,0.00,,,0.02,WeatherDisplay:10.37,2013-05-05 09:15:00,
2013-05-05 04:20:00,39.9,39.7,29.00,NW,315,2.3,2.3,99,0.01,RA,,0.04,WeatherDisplay:10.37,2013-05-05 09:20:00,
2013-05-05 04:25:00,39.9,39.7,29.00,North,0,4.6,4.6,99,0.01,RA,,0.04,WeatherDisplay:10.37,2013-05-05 09:25:00,
2013-05-05 04:30:00,39.9,39.7,29.00,NW,315,3.5,3.5,99,0.01,,,0.04,WeatherDisplay:10.37,2013-05-05 09:30:00,
2013-05-05 04:36:00,39.9,39.7,29.00,North,0,3.5,3.5,99,0.01,,,0.04,WeatherDisplay:10.37,2013-05-05 09:36:00,
2013-05-05 04:41:00,39.9,39.7,29.00,North,0,3.5,3.5,99,0.01,,,0.04,WeatherDisplay:10.37,2013-05-05 09:41:00,
2013-05-05 04:46:00,39.9,39.7,29.00,NW,315,3.5,3.5,99,0.02,RA,,0.05,WeatherDisplay:10.37,2013-05-05 09:46:00,
2013-05-05 04:52:00,39.9,39.7,29.00,North,0,2.3,2.3,99,0.02,RA,,0.05,WeatherDisplay:10.37,2013-05-05 09:52:00,
2013-05-05 04:57:00,39.9,39.7,29.00,NW,315,2.3,2.3,99,0.02,,,0.05,WeatherDisplay:10.37,2013-05-05 09:57:00,
2013-05-05 05:02:00,39.9,39.7,29.00,NW,315,3.5,3.5,99,0.02,,,0.05,WeatherDisplay:10.37,2013-05-05 10:02:00,
2013-05-05 05:07:00,39.9,39.7,29.00,NW,315,3.5,3.5,99,0.02,,,0.05,WeatherDisplay:10.37,2013-05-05 10:07:00,
2013-05-05 05:12:00,39.9,39.7,29.00,NW,315,2.3,2.3,99,0.02,,,0.05,WeatherDisplay:10.37,2013-05-05 10:12:00,
2013-05-05 05:18:00,39.9,39.7,29.00,North,0,3.5,3.5,99,0.01,,,0.05,WeatherDisplay:10.37,2013-05-05 10:18:00,
2013-05-05 05:23:00,39.9,39.7,29.00,North,0,2.3,2.3,99,0.01,,,0.05,WeatherDisplay:10.37,2013-05-05 10:23:00,
2013-05-05 05:28:00,40.1,39.8,29.00,North,0,3.5,3.5,99,0.01,,,0.05,WeatherDisplay:10.37,2013-05-05 10:28:00,
2013-05-05 05:33:00,40.1,39.8,29.00,NW,315,3.5,3.5,99,0.01,,,0.05,WeatherDisplay:10.37,2013-05-05 10:33:00,
2013-05-05 05:39:00,40.1,39.8,28.99,NW,315,4.6,4.6,99,0.01,,,0.05,WeatherDisplay:10.37,2013-05-05 10:39:00,
2013-05-05 05:44:00,39.9,39.7,29.00,NW,315,3.5,3.5,99,0.01,,,0.05,WeatherDisplay:10.37,2013-05-05 10:44:00,
2013-05-05 05:49:00,40.1,39.8,28.99,NW,315,3.5,3.5,99,0.00,,,0.05,WeatherDisplay:10.37,2013-05-05 10:49:00,
2013-05-05 05:54:00,40.1,39.8,28.99,NW,315,3.5,3.5,99,0.00,,,0.05,WeatherDisplay:10.37,2013-05-05 10:54:00,
2013-05-05 05:59:00,40.1,39.8,29.00,NW,315,2.3,2.3,99,0.00,,,0.05,WeatherDisplay:10.37,2013-05-05 10:59:00,
2013-05-05 06:05:00,39.9,39.7,29.00,North,0,2.3,2.3,99,0.00,,,0.05,WeatherDisplay:10.37,2013-05-05 11:05:00,
2013-05-05 06:10:00,40.1,39.8,29.00,North,0,3.5,3.5,99,0.00,,,0.05,WeatherDisplay:10.37,2013-05-05 11:10:00,
2013-05-05 06:15:00,40.1,39.8,29.00,NNW,342,1.0,4.0,99,0.00,,,0.05,WeatherDisplay:10.37,2013-05-05 11:15:00,
2013-05-05 06:20:00,40.1,39.8,29.00,NW,315,3.5,3.5,99,0.00,,,0.05,WeatherDisplay:10.37,2013-05-05 11:20:00,
2013-05-05 06:25:00,40.1,39.8,29.00,NNW,338,3.5,3.5,99,0.00,,,0.05,WeatherDisplay:10.37,2013-05-05 11:25:00,
2013-05-05 06:30:00,40.1,39.8,28.99,North,0,3.5,3.5,99,0.00,,,0.05,WeatherDisplay:10.37,2013-05-05 11:30:00,
2013-05-05 06:36:00,40.1,39.8,29.00,NE,45,3.5,3.5,99,0.00,,,0.05,WeatherDisplay:10.37,2013-05-05 11:36:00,
2013-05-05 06:41:00,40.1,39.8,29.00,North,0,3.5,3.5,99,0.00,,,0.05,WeatherDisplay:10.37,2013-05-05 11:41:00,
2013-05-05 06:46:00,40.1,39.8,29.00,North,0,5.8,5.8,99,0.01,RA,,0.06,WeatherDisplay:10.37,2013-05-05 11:46:00,
2013-05-05 06:51:00,40.1,39.8,28.99,NW,315,3.5,3.5,99,0.01,RA,,0.06,WeatherDisplay:10.37,2013-05-05 11:51:00,
2013-05-05 06:56:00,40.3,40.0,29.00,North,0,3.5,3.5,99,0.01,,,0.06,WeatherDisplay:10.37,2013-05-05 11:56:00,
2013-05-05 07:02:00,40.3,40.0,29.00,NW,315,2.3,2.3,99,0.01,,,0.06,WeatherDisplay:10.37,2013-05-05 12:02:00,
2013-05-05 07:07:00,40.3,40.0,29.00,NW,315,2.3,2.3,99,0.01,,,0.06,WeatherDisplay:10.37,2013-05-05 12:07:00,
2013-05-05 07:12:00,40.5,40.2,29.00,North,0,3.1,3.1,99,0.01,,,0.06,WeatherDisplay:10.37,2013-05-05 12:12:00,
2013-05-05 07:17:00,40.5,40.2,29.00,NW,315,3.5,3.5,99,0.01,,,0.06,WeatherDisplay:10.37,2013-05-05 12:17:00,
2013-05-05 07:22:00,40.6,40.4,29.00,NW,315,3.5,3.5,99,0.01,,,0.06,WeatherDisplay:10.37,2013-05-05 12:22:00,
2013-05-05 07:27:00,40.6,40.4,29.00,NW,315,3.5,3.5,99,0.01,,,0.06,WeatherDisplay:10.37,2013-05-05 12:27:00,
2013-05-05 07:32:00,40.8,40.6,29.00,NNW,338,5.8,5.8,99,0.01,,,0.06,WeatherDisplay:10.37,2013-05-05 12:32:00,
2013-05-05 07:38:00,41.0,40.7,29.00,North,0,3.5,3.5,99,0.01,,,0.06,WeatherDisplay:10.37,2013-05-05 12:38:00,
2013-05-05 07:43:00,41.0,40.7,29.00,North,0,3.5,3.5,99,0.01,,,0.06,WeatherDisplay:10.37,2013-05-05 12:43:00,
2013-05-05 07:48:00,41.2,40.9,29.01,North,0,3.5,3.5,99,0.00,,,0.06,WeatherDisplay:10.37,2013-05-05 12:48:00,
2013-05-05 07:53:00,41.4,41.1,29.01,North,0,3.5,3.5,99,0.00,,,0.06,WeatherDisplay:10.37,2013-05-05 12:53:00,
2013-05-05 07:58:00,41.4,41.1,29.01,NE,45,3.5,3.5,99,0.01,RA,,0.07,WeatherDisplay:10.37,2013-05-05 12:58:00,
2013-05-05 08:03:00,41.5,41.3,29.01,NW,315,2.3,2.3,99,0.01,RA,,0.07,WeatherDisplay:10.37,2013-05-05 13:03:00,
2013-05-05 08:08:00,41.7,41.5,29.01,North,0,3.5,3.5,99,0.01,,,0.07,WeatherDisplay:10.37,2013-05-05 13:08:00,
2013-05-05 08:13:00,41.9,41.6,29.01,NE,45,2.3,2.3,99,0.01,,,0.07,WeatherDisplay:10.37,2013-05-05 13:13:00,
2013-05-05 08:19:00,42.1,41.8,29.01,North,0,3.5,3.5,99,0.01,,,0.07,WeatherDisplay:10.37,2013-05-05 13:19:00,
2013-05-05 08:24:00,42.1,41.8,29.01,North,0,2.3,2.3,99,0.01,,,0.07,WeatherDisplay:10.37,2013-05-05 13:24:00,
2013-05-05 08:29:00,42.4,42.2,29.01,North,0,3.5,3.5,99,0.01,,,0.07,WeatherDisplay:10.37,2013-05-05 13:29:00,
2013-05-05 08:34:00,42.4,42.2,29.01,North,0,8.1,8.1,99,0.01,,,0.07,WeatherDisplay:10.37,2013-05-05 13:34:00,
2013-05-05 08:39:00,42.8,42.3,29.01,North,0,2.3,2.3,98,0.01,,,0.07,WeatherDisplay:10.37,2013-05-05 13:39:00,
2013-05-05 08:44:00,43.0,42.5,29.01,North,0,3.5,3.5,98,0.01,,,0.07,WeatherDisplay:10.37,2013-05-05 13:44:00,
2013-05-05 08:49:00,43.0,42.5,29.02,North,0,2.3,2.3,98,0.01,,,0.07,WeatherDisplay:10.37,2013-05-05 13:49:00,
2013-05-05 08:54:00,43.3,42.5,29.01,North,0,3.5,3.5,97,0.01,,,0.07,WeatherDisplay:10.37,2013-05-05 13:54:00,
2013-05-05 08:59:00,43.3,42.5,29.01,North,0,8.1,8.1,97,0.00,,,0.07,WeatherDisplay:10.37,2013-05-05 13:59:00,
2013-05-05 09:04:00,42.1,41.0,29.01,NE,45,3.5,3.5,96,0.00,,,0.07,WeatherDisplay:10.37,2013-05-05 14:04:00,
2013-05-05 09:09:00,43.7,42.4,29.01,NE,45,3.5,3.5,95,0.00,,,0.07,WeatherDisplay:10.37,2013-05-05 14:09:00,
2013-05-05 09:14:00,44.1,42.7,29.02,NW,315,8.1,8.1,95,0.00,,,0.07,WeatherDisplay:10.37,2013-05-05 14:14:00,
2013-05-05 09:19:00,44.2,42.9,29.01,North,0,4.6,4.6,95,0.00,,,0.07,WeatherDisplay:10.37,2013-05-05 14:19:00,
2013-05-05 09:25:00,44.4,42.8,29.02,NNE,22,3.5,3.5,94,0.00,,,0.07,WeatherDisplay:10.37,2013-05-05 14:25:00,
2013-05-05 09:30:00,44.4,42.8,29.02,North,0,5.8,5.8,94,0.00,,,0.07,WeatherDisplay:10.37,2013-05-05 14:30:00,
2013-05-05 09:35:00,44.4,42.5,29.02,North,0,3.5,3.5,93,0.00,,,0.07,WeatherDisplay:10.37,2013-05-05 14:35:00,
2013-05-05 09:40:00,44.4,42.5,29.01,North,0,3.5,3.5,93,0.00,,,0.07,WeatherDisplay:10.37,2013-05-05 14:40:00,
2013-05-05 09:45:00,44.6,42.7,29.01,North,2,2.0,7.0,93,0.00,,,0.07,WeatherDisplay:10.37,2013-05-05 14:45:00,
2013-05-05 09:50:00,45.0,43.1,29.02,North,0,3.8,3.8,93,0.00,,,0.07,WeatherDisplay:10.37,2013-05-05 14:50:00,
2013-05-05 09:56:00,45.1,43.0,29.01,North,0,3.5,3.5,92,0.00,,,0.07,WeatherDisplay:10.37,2013-05-05 14:56:00,
2013-05-05 10:01:00,45.1,43.0,29.01,NW,315,3.5,3.5,92,0.00,,,0.07,WeatherDisplay:10.37,2013-05-05 15:01:00,
2013-05-05 10:06:00,45.3,42.8,29.01,NE,45,5.8,5.8,91,0.00,,,0.07,WeatherDisplay:10.37,2013-05-05 15:06:00,
2013-05-05 10:12:00,45.7,43.2,29.01,North,0,3.5,3.5,91,0.00,,,0.07,WeatherDisplay:10.37,2013-05-05 15:12:00,
2013-05-05 10:17:00,45.5,42.7,29.01,North,0,10.4,10.4,90,0.00,,,0.07,WeatherDisplay:10.37,2013-05-05 15:17:00,
2013-05-05 10:22:00,45.3,42.6,29.01,North,0,8.1,8.1,90,0.00,,,0.07,WeatherDisplay:10.37,2013-05-05 15:22:00,
2013-05-05 10:27:00,45.5,43.0,29.01,North,0,3.5,3.5,91,0.00,,,0.07,WeatherDisplay:10.37,2013-05-05 15:27:00,
2013-05-05 10:32:00,45.9,43.4,29.01,NE,45,5.8,5.8,91,0.00,,,0.07,WeatherDisplay:10.37,2013-05-05 15:32:00,
2013-05-05 10:38:00,46.4,43.6,29.01,North,0,4.5,4.5,90,0.00,,,0.07,WeatherDisplay:10.37,2013-05-05 15:38:00,
2013-05-05 10:43:00,46.8,44.0,29.01,NE,45,3.5,3.5,90,0.00,,,0.07,WeatherDisplay:10.37,2013-05-05 15:43:00,
2013-05-05 10:48:00,47.1,44.0,29.01,North,0,4.6,4.6,89,0.00,,,0.07,WeatherDisplay:10.37,2013-05-05 15:48:00,
2013-05-05 10:53:00,48.0,44.6,29.01,WNW,292,6.9,6.9,88,0.00,,,0.07,WeatherDisplay:10.37,2013-05-05 15:53:00,
2013-05-05 10:58:00,48.0,44.3,29.01,NW,315,5.8,5.8,87,0.00,,,0.07,WeatherDisplay:10.37,2013-05-05 15:58:00,
2013-05-05 11:03:00,48.2,44.2,29.01,NE,45,5.8,5.8,86,0.00,,,0.07,WeatherDisplay:10.37,2013-05-05 16:03:00,
2013-05-05 11:08:00,48.6,44.6,29.01,East,90,3.5,3.5,86,0.00,,,0.07,WeatherDisplay:10.37,2013-05-05 16:08:00,
2013-05-05 11:14:00,48.7,44.4,29.01,WNW,292,5.8,5.8,85,0.00,,,0.07,WeatherDisplay:10.37,2013-05-05 16:14:00,
2013-05-05 11:19:00,49.1,44.8,29.00,NW,315,5.8,5.8,85,0.00,,,0.07,WeatherDisplay:10.37,2013-05-05 16:19:00,
2013-05-05 11:24:00,49.1,44.5,29.01,North,0,4.6,4.6,84,0.00,,,0.07,WeatherDisplay:10.37,2013-05-05 16:24:00,
2013-05-05 11:29:00,49.1,44.8,29.01,North,0,5.8,5.8,85,0.00,,,0.07,WeatherDisplay:10.37,2013-05-05 16:29:00,
2013-05-05 11:34:00,49.1,44.8,29.01,NW,315,5.8,5.8,85,0.00,,,0.07,WeatherDisplay:10.37,2013-05-05 16:34:00,
2013-05-05 11:40:00,49.3,45.0,29.01,SW,225,8.1,8.1,85,0.00,,,0.07,WeatherDisplay:10.37,2013-05-05 16:40:00,
2013-05-05 11:45:00,49.1,45.1,29.01,NW,315,5.8,5.8,86,0.00,,,0.07,WeatherDisplay:10.37,2013-05-05 16:45:00,
2013-05-05 11:50:00,48.9,44.6,29.01,NW,315,5.8,5.8,85,0.00,,,0.07,WeatherDisplay:10.37,2013-05-05 16:50:00,
2013-05-05 11:55:00,48.9,44.9,29.02,NW,315,5.8,5.8,86,0.00,,,0.07,WeatherDisplay:10.37,2013-05-05 16:55:00,
2013-05-05 12:00:00,48.6,44.6,29.01,North,0,8.1,8.1,86,0.00,,,0.07,WeatherDisplay:10.37,2013-05-05 17:00:00,
2013-05-05 12:05:00,48.9,44.9,29.01,NW,315,5.8,5.8,86,0.00,,,0.07,WeatherDisplay:10.37,2013-05-05 17:05:00,
2013-05-05 12:11:00,48.9,44.6,29.01,NW,315,5.8,5.8,85,0.00,,,0.07,WeatherDisplay:10.37,2013-05-05 17:11:00,
2013-05-05 12:16:00,48.6,44.9,29.01,NW,315,5.8,5.8,87,0.00,,,0.07,WeatherDisplay:10.37,2013-05-05 17:16:00,
2013-05-05 12:21:00,48.2,44.8,29.01,NW,315,8.1,8.1,88,0.00,,,0.07,WeatherDisplay:10.37,2013-05-05 17:21:00,
2013-05-05 12:26:00,48.0,44.9,29.01,NNW,338,5.8,5.8,89,0.00,,,0.07,WeatherDisplay:10.37,2013-05-05 17:26:00,
2013-05-05 12:31:00,47.8,44.5,29.01,NW,315,5.8,5.8,88,0.00,,,0.07,WeatherDisplay:10.37,2013-05-05 17:31:00,
2013-05-05 12:36:00,47.8,44.8,29.00,North,0,5.8,5.8,89,0.00,,,0.07,WeatherDisplay:10.37,2013-05-05 17:36:00,
2013-05-05 12:42:00,47.8,44.8,29.00,NW,315,6.9,6.9,89,0.00,,,0.07,WeatherDisplay:10.37,2013-05-05 17:42:00,
2013-05-05 12:47:00,48.0,44.9,29.00,NW,315,6.9,6.9,89,0.00,,,0.07,WeatherDisplay:10.37,2013-05-05 17:47:00,
2013-05-05 12:52:00,48.0,44.9,29.00,NW,315,5.8,5.8,89,0.00,,,0.07,WeatherDisplay:10.37,2013-05-05 17:52:00,
2013-05-05 12:58:00,48.0,45.2,29.00,NW,315,5.8,5.8,90,0.00,,,0.07,WeatherDisplay:10.37,2013-05-05 17:58:00,
2013-05-05 13:03:00,48.0,44.9,29.00,North,0,3.5,3.5,89,0.00,,,0.07,WeatherDisplay:10.37,2013-05-05 18:03:00,
2013-05-05 13:08:00,48.7,45.6,29.00,NE,45,3.5,3.5,89,0.00,,,0.07,WeatherDisplay:10.37,2013-05-05 18:08:00,
2013-05-05 13:13:00,48.9,45.8,29.00,North,0,5.8,5.8,89,0.01,RA,,0.08,WeatherDisplay:10.37,2013-05-05 18:13:00,
2013-05-05 13:18:00,49.3,46.2,29.00,NNW,338,3.5,3.5,89,0.01,RA,,0.08,WeatherDisplay:10.37,2013-05-05 18:18:00,
2013-05-05 13:23:00,49.6,46.2,29.00,North,0,3.5,3.5,88,0.01,,,0.08,WeatherDisplay:10.37,2013-05-05 18:23:00,
2013-05-05 13:28:00,49.8,46.4,29.00,North,0,4.6,4.6,88,0.01,,,0.08,WeatherDisplay:10.37,2013-05-05 18:28:00,
2013-05-05 13:34:00,50.0,46.6,29.00,North,0,3.5,3.5,88,0.01,,,0.08,WeatherDisplay:10.37,2013-05-05 18:34:00,
2013-05-05 13:39:00,50.4,46.9,29.00,NW,315,5.8,5.8,88,0.02,RA,,0.09,WeatherDisplay:10.37,2013-05-05 18:39:00,
2013-05-05 13:44:00,50.5,47.1,29.00,North,0,4.6,4.6,88,0.02,RA,,0.09,WeatherDisplay:10.37,2013-05-05 18:44:00,
2013-05-05 13:49:00,50.5,46.5,29.00,North,0,6.9,6.9,86,0.02,,,0.09,WeatherDisplay:10.37,2013-05-05 18:49:00,
2013-05-05 13:54:00,50.5,47.1,29.00,North,0,3.5,3.5,88,0.02,,,0.09,WeatherDisplay:10.37,2013-05-05 18:54:00,
2013-05-05 13:59:00,50.7,47.0,29.00,NE,45,3.5,3.5,87,0.02,,,0.09,WeatherDisplay:10.37,2013-05-05 18:59:00,
2013-05-05 14:04:00,50.9,47.2,29.00,North,0,3.5,3.5,87,0.02,,,0.09,WeatherDisplay:10.37,2013-05-05 19:04:00,
2013-05-05 14:10:00,50.7,47.0,29.00,NE,45,3.5,3.5,87,0.01,,,0.09,WeatherDisplay:10.37,2013-05-05 19:10:00,
2013-05-05 14:15:00,50.7,47.0,29.00,NNW,338,5.8,5.8,87,0.01,,,0.09,WeatherDisplay:10.37,2013-05-05 19:15:00,
2013-05-05 14:20:00,51.1,47.3,28.99,North,0,5.8,5.8,87,0.01,,,0.09,WeatherDisplay:10.37,2013-05-05 19:20:00,
2013-05-05 14:25:00,51.1,47.3,29.00,NW,315,4.6,4.6,87,0.01,,,0.09,WeatherDisplay:10.37,2013-05-05 19:25:00,
2013-05-05 14:30:00,50.9,47.2,29.00,NNW,330,2.0,6.0,87,0.00,,,0.09,WeatherDisplay:10.37,2013-05-05 19:30:00,
2013-05-05 14:35:00,50.5,46.8,28.99,NE,45,3.5,3.5,87,0.00,,,0.09,WeatherDisplay:10.37,2013-05-05 19:35:00,
2013-05-05 14:40:00,50.4,46.6,28.99,NW,315,5.8,5.8,87,0.00,,,0.09,WeatherDisplay:10.37,2013-05-05 19:40:00,
2013-05-05 14:46:00,50.0,46.6,29.00,NW,315,6.9,6.9,88,0.00,,,0.09,WeatherDisplay:10.37,2013-05-05 19:46:00,
2013-05-05 14:51:00,50.0,46.9,28.99,North,0,5.8,5.8,89,0.00,,,0.09,WeatherDisplay:10.37,2013-05-05 19:51:00,
2013-05-05 14:56:00,50.4,47.2,28.99,North,0,3.5,3.5,89,0.00,,,0.09,WeatherDisplay:10.37,2013-05-05 19:56:00,
2013-05-05 15:01:00,50.5,47.1,28.98,NW,315,3.8,3.8,88,0.00,,,0.09,WeatherDisplay:10.37,2013-05-05 20:01:00,
2013-05-05 15:06:00,50.5,47.1,28.98,NW,315,3.5,3.5,88,0.00,,,0.09,WeatherDisplay:10.37,2013-05-05 20:06:00,
2013-05-05 15:11:00,51.1,47.0,28.98,North,0,3.5,3.5,86,0.00,,,0.09,WeatherDisplay:10.37,2013-05-05 20:11:00,
2013-05-05 15:16:00,51.3,47.5,28.98,NW,315,5.8,5.8,87,0.00,,,0.09,WeatherDisplay:10.37,2013-05-05 20:16:00,
2013-05-05 15:22:00,51.4,47.7,28.98,North,0,5.8,5.8,87,0.00,,,0.09,WeatherDisplay:10.37,2013-05-05 20:22:00,
2013-05-05 15:27:00,51.8,47.7,28.98,NW,315,5.8,5.8,86,0.00,,,0.09,WeatherDisplay:10.37,2013-05-05 20:27:00,
2013-05-05 15:32:00,51.6,46.9,28.98,North,0,6.9,6.9,84,0.00,,,0.09,WeatherDisplay:10.37,2013-05-05 20:32:00,
2013-05-05 15:37:00,52.0,47.6,28.98,NE,45,4.6,4.6,85,0.00,,,0.09,WeatherDisplay:10.37,2013-05-05 20:37:00,
2013-05-05 15:42:00,52.5,47.8,28.98,NW,315,3.5,3.5,84,0.00,,,0.09,WeatherDisplay:10.37,2013-05-05 20:42:00,
2013-05-05 15:47:00,52.5,47.5,28.97,West,270,3.5,3.5,83,0.00,,,0.09,WeatherDisplay:10.37,2013-05-05 20:47:00,
2013-05-05 15:52:00,52.0,47.3,28.97,NW,315,5.8,5.8,84,0.00,,,0.09,WeatherDisplay:10.37,2013-05-05 20:52:00,
2013-05-05 15:58:00,51.4,47.7,28.97,NW,315,5.8,5.8,87,0.00,,,0.09,WeatherDisplay:10.37,2013-05-05 20:58:00,
2013-05-05 16:03:00,51.3,47.8,28.97,North,0,3.5,3.5,88,0.00,,,0.09,WeatherDisplay:10.37,2013-05-05 21:03:00,
2013-05-05 16:08:00,51.4,48.0,28.97,NW,315,5.8,5.8,88,0.00,,,0.09,WeatherDisplay:10.37,2013-05-05 21:08:00,
2013-05-05 16:14:00,51.4,47.7,28.97,North,0,4.6,4.6,87,0.00,,,0.09,WeatherDisplay:10.37,2013-05-05 21:14:00,
2013-05-05 16:19:00,51.4,47.7,28.97,NW,315,3.5,3.5,87,0.00,,,0.09,WeatherDisplay:10.37,2013-05-05 21:19:00,
2013-05-05 16:24:00,51.4,48.0,28.97,North,0,8.1,8.1,88,0.00,,,0.09,WeatherDisplay:10.37,2013-05-05 21:24:00,
2013-05-05 16:29:00,51.1,47.6,28.97,NW,315,6.9,6.9,88,0.00,,,0.09,WeatherDisplay:10.37,2013-05-05 21:29:00,
2013-05-05 16:34:00,51.3,47.8,28.97,NW,315,6.9,6.9,88,0.00,,,0.09,WeatherDisplay:10.37,2013-05-05 21:34:00,
2013-05-05 16:40:00,51.4,48.3,28.97,NW,315,3.5,3.5,89,0.00,,,0.09,WeatherDisplay:10.37,2013-05-05 21:40:00,
2013-05-05 16:45:00,51.3,47.5,28.97,North,0,4.6,4.6,87,0.00,,,0.09,WeatherDisplay:10.37,2013-05-05 21:45:00,
2013-05-05 16:50:00,51.3,47.5,28.96,North,0,5.8,5.8,87,0.00,,,0.09,WeatherDisplay:10.37,2013-05-05 21:50:00,
2013-05-05 16:55:00,51.1,47.6,28.96,NW,315,5.8,5.8,88,0.00,,,0.09,WeatherDisplay:10.37,2013-05-05 21:55:00,
2013-05-05 17:00:00,50.9,47.5,28.96,NW,315,5.8,5.8,88,0.00,,,0.09,WeatherDisplay:10.37,2013-05-05 22:00:00,
2013-05-05 17:06:00,50.9,47.5,28.96,NNW,338,5.8,5.8,88,0.00,,,0.09,WeatherDisplay:10.37,2013-05-05 22:06:00,
2013-05-05 17:11:00,50.9,47.2,28.96,NE,45,5.8,5.8,87,0.00,,,0.09,WeatherDisplay:10.37,2013-05-05 22:11:00,
2013-05-05 17:16:00,50.9,47.5,28.96,West,270,4.6,4.6,88,0.00,,,0.09,WeatherDisplay:10.37,2013-05-05 22:16:00,
2013-05-05 17:21:00,50.9,47.2,28.96,NW,315,4.6,4.6,87,0.00,,,0.09,WeatherDisplay:10.37,2013-05-05 22:21:00,
2013-05-05 17:26:00,50.7,47.0,28.96,North,0,5.8,5.8,87,0.00,,,0.09,WeatherDisplay:10.37,2013-05-05 22:26:00,
2013-05-05 17:32:00,50.9,47.5,28.96,NW,315,4.6,4.6,88,0.00,,,0.09,WeatherDisplay:10.37,2013-05-05 22:32:00,
2013-05-05 17:37:00,51.1,47.6,28.96,NW,315,5.8,5.8,88,0.00,,,0.09,WeatherDisplay:10.37,2013-05-05 22:37:00,
2013-05-05 17:42:00,51.3,48.1,28.96,NW,315,4.6,4.6,89,0.00,,,0.09,WeatherDisplay:10.37,2013-05-05 22:42:00,
2013-05-05 17:47:00,51.3,47.8,28.96,NW,315,5.8,5.8,88,0.00,,,0.09,WeatherDisplay:10.37,2013-05-05 22:47:00,
2013-05-05 17:53:00,51.3,47.5,28.96,NW,315,8.1,8.1,87,0.00,,,0.09,WeatherDisplay:10.37,2013-05-05 22:53:00,
2013-05-05 17:58:00,52.0,48.2,28.96,North,0,5.8,5.8,87,0.00,,,0.09,WeatherDisplay:10.37,2013-05-05 22:58:00,
2013-05-05 18:03:00,52.3,48.0,28.96,NW,315,5.8,5.8,85,0.00,,,0.09,WeatherDisplay:10.37,2013-05-05 23:03:00,
2013-05-05 18:08:00,52.9,48.5,28.96,NW,315,4.5,4.5,85,0.00,,,0.09,WeatherDisplay:10.37,2013-05-05 23:08:00,
2013-05-05 18:14:00,53.1,48.0,28.96,NW,315,3.5,3.5,83,0.00,,,0.09,WeatherDisplay:10.37,2013-05-05 23:14:00,
2013-05-05 18:19:00,53.1,48.0,28.95,NW,315,4.6,4.6,83,0.00,,,0.09,WeatherDisplay:10.37,2013-05-05 23:19:00,
2013-05-05 18:24:00,55.9,49.2,28.96,North,0,8.1,8.1,78,0.00,,,0.09,WeatherDisplay:10.37,2013-05-05 23:24:00,
2013-05-05 18:29:00,56.8,49.0,28.95,North,0,5.8,5.8,75,0.00,,,0.09,WeatherDisplay:10.37,2013-05-05 23:29:00,
2013-05-05 18:34:00,58.6,49.3,28.95,North,0,4.6,4.6,71,0.00,,,0.09,WeatherDisplay:10.37,2013-05-05 23:34:00,
2013-05-05 18:40:00,57.4,48.4,28.95,NW,315,5.8,5.8,72,0.00,,,0.09,WeatherDisplay:10.37,2013-05-05 23:40:00,
2013-05-05 18:45:00,57.9,49.3,28.95,North,0,5.8,5.8,73,0.00,,,0.09,WeatherDisplay:10.37,2013-05-05 23:45:00,
2013-05-05 18:50:00,58.3,48.9,28.95,NW,315,8.1,8.1,71,0.00,,,0.09,WeatherDisplay:10.37,2013-05-05 23:50:00,
2013-05-05 18:55:00,58.3,48.9,28.95,NW,315,4.6,4.6,71,0.00,,,0.09,WeatherDisplay:10.37,2013-05-05 23:55:00,
2013-05-05 19:00:00,57.6,47.5,28.95,North,0,6.9,6.9,69,0.00,,,0.09,WeatherDisplay:10.37,2013-05-06 00:00:00,
2013-05-05 19:05:00,57.6,47.5,28.95,North,0,5.8,5.8,69,0.00,,,0.09,WeatherDisplay:10.37,2013-05-06 00:05:00,
2013-05-05 19:11:00,55.9,48.1,28.95,NW,315,5.8,5.8,75,0.00,,,0.09,WeatherDisplay:10.37,2013-05-06 00:11:00,
2013-05-05 19:16:00,55.4,47.6,28.95,North,0,3.5,3.5,75,0.00,,,0.09,WeatherDisplay:10.37,2013-05-06 00:16:00,
2013-05-05 19:21:00,55.6,47.8,28.95,NE,45,6.9,6.9,75,0.00,,,0.09,WeatherDisplay:10.37,2013-05-06 00:21:00,
2013-05-05 19:27:00,54.9,46.7,28.96,North,0,3.5,3.5,74,0.00,,,0.09,WeatherDisplay:10.37,2013-05-06 00:27:00,
2013-05-05 19:32:00,53.8,46.7,28.95,NW,315,3.5,3.5,77,0.00,,,0.09,WeatherDisplay:10.37,2013-05-06 00:32:00,
2013-05-05 19:37:00,53.1,46.7,28.95,North,0,2.3,2.3,79,0.00,,,0.09,WeatherDisplay:10.37,2013-05-06 00:37:00,
2013-05-05 19:42:00,52.7,47.0,28.95,NW,315,3.5,3.5,81,0.00,,,0.09,WeatherDisplay:10.37,2013-05-06 00:42:00,
2013-05-05 19:47:00,52.5,46.9,28.95,NNW,338,2.3,2.3,81,0.00,,,0.09,WeatherDisplay:10.37,2013-05-06 00:47:00,
2013-05-05 19:52:00,52.2,46.8,28.95,NW,315,3.5,3.5,82,0.00,,,0.09,WeatherDisplay:10.37,2013-05-06 00:52:00,
2013-05-05 19:57:00,51.8,47.1,28.95,NW,315,3.5,3.5,84,0.00,,,0.09,WeatherDisplay:10.37,2013-05-06 00:57:00,
2013-05-05 20:02:00,51.6,46.9,28.95,NW,315,3.5,3.5,84,0.00,,,0.09,WeatherDisplay:10.37,2013-05-06 01:02:00,
2013-05-05 20:07:00,51.4,46.8,28.95,NW,315,3.5,3.5,84,0.00,,,0.09,WeatherDisplay:10.37,2013-05-06 01:07:00,
2013-05-05 20:13:00,51.3,46.9,28.95,NW,315,3.5,3.5,85,0.00,,,0.09,WeatherDisplay:10.37,2013-05-06 01:13:00,
2013-05-05 20:18:00,50.9,46.6,28.95,NW,315,2.3,2.3,85,0.00,,,0.09,WeatherDisplay:10.37,2013-05-06 01:18:00,
2013-05-05 20:23:00,50.9,46.9,28.95,NW,315,3.5,3.5,86,0.00,,,0.09,WeatherDisplay:10.37,2013-05-06 01:23:00,
2013-05-05 20:28:00,50.7,47.0,28.95,NW,315,3.5,3.5,87,0.00,,,0.09,WeatherDisplay:10.37,2013-05-06 01:28:00,
2013-05-05 20:33:00,50.5,46.8,28.95,NW,315,2.3,2.3,87,0.00,,,0.09,WeatherDisplay:10.37,2013-05-06 01:33:00,
2013-05-05 20:39:00,50.2,46.8,28.95,NW,315,3.5,3.5,88,0.00,,,0.09,WeatherDisplay:10.37,2013-05-06 01:39:00,
2013-05-05 20:44:00,50.2,47.1,28.96,NW,315,3.5,3.5,89,0.00,,,0.09,WeatherDisplay:10.37,2013-05-06 01:44:00,
2013-05-05 20:49:00,50.0,46.9,28.95,NW,315,3.5,3.5,89,0.00,,,0.09,WeatherDisplay:10.37,2013-05-06 01:49:00,
2013-05-05 20:54:00,49.8,47.0,28.95,NW,315,3.5,3.5,90,0.00,,,0.09,WeatherDisplay:10.37,2013-05-06 01:54:00,
2013-05-05 20:59:00,49.6,46.8,28.95,NNW,338,3.5,3.5,90,0.00,,,0.09,WeatherDisplay:10.37,2013-05-06 01:59:00,
2013-05-05 21:04:00,49.6,46.8,28.96,NW,315,2.3,2.3,90,0.00,,,0.09,WeatherDisplay:10.37,2013-05-06 02:04:00,
2013-05-05 21:09:00,49.5,46.9,28.96,NW,315,3.5,3.5,91,0.00,,,0.09,WeatherDisplay:10.37,2013-05-06 02:09:00,
2013-05-05 21:14:00,49.3,46.8,28.96,NW,315,1.0,3.0,91,0.00,,,0.09,WeatherDisplay:10.37,2013-05-06 02:14:00,
2013-05-05 21:19:00,49.3,46.8,28.96,NW,315,3.5,3.5,91,0.00,,,0.09,WeatherDisplay:10.37,2013-05-06 02:19:00,
2013-05-05 21:24:00,49.3,46.8,28.96,NW,315,3.5,3.5,91,0.00,,,0.09,WeatherDisplay:10.37,2013-05-06 02:24:00,
2013-05-05 21:30:00,49.1,46.9,28.96,North,0,3.5,3.5,92,0.00,,,0.09,WeatherDisplay:10.37,2013-05-06 02:30:00,
2013-05-05 21:35:00,49.1,46.9,28.96,NW,315,3.5,3.5,92,0.00,,,0.09,WeatherDisplay:10.37,2013-05-06 02:35:00,
2013-05-05 21:40:00,48.9,46.7,28.96,NW,315,2.3,2.3,92,0.00,,,0.09,WeatherDisplay:10.37,2013-05-06 02:40:00,
2013-05-05 21:45:00,48.9,46.7,28.96,NW,315,3.5,3.5,92,0.00,,,0.09,WeatherDisplay:10.37,2013-05-06 02:45:00,
2013-05-05 21:50:00,48.7,46.5,28.97,North,0,3.5,3.5,92,0.00,,,0.09,WeatherDisplay:10.37,2013-05-06 02:50:00,
2013-05-05 21:55:00,48.7,46.5,28.97,NW,315,3.5,3.5,92,0.00,,,0.09,WeatherDisplay:10.37,2013-05-06 02:55:00,
2013-05-05 22:00:00,48.7,46.5,28.96,NW,315,2.3,2.3,92,0.00,,,0.09,WeatherDisplay:10.37,2013-05-06 03:00:00,
2013-05-05 22:06:00,48.7,46.5,28.97,NW,315,1.2,1.2,92,0.00,,,0.09,WeatherDisplay:10.37,2013-05-06 03:06:00,
2013-05-05 22:11:00,48.7,46.5,28.97,NW,315,3.5,3.5,92,0.00,,,0.09,WeatherDisplay:10.37,2013-05-06 03:11:00,
2013-05-05 22:16:00,48.7,46.8,28.97,NW,315,2.3,2.3,93,0.00,,,0.09,WeatherDisplay:10.37,2013-05-06 03:16:00,
2013-05-05 22:21:00,48.6,46.6,28.97,NW,315,3.5,3.5,93,0.00,,,0.09,WeatherDisplay:10.37,2013-05-06 03:21:00,
2013-05-05 22:26:00,48.6,46.6,28.97,North,0,2.3,2.3,93,0.00,,,0.09,WeatherDisplay:10.37,2013-05-06 03:26:00,
2013-05-05 22:31:00,48.6,46.6,28.97,NW,315,2.3,2.3,93,0.00,,,0.09,WeatherDisplay:10.37,2013-05-06 03:31:00,
2013-05-05 22:36:00,48.4,46.4,28.97,NW,315,2.3,2.3,93,0.00,,,0.09,WeatherDisplay:10.37,2013-05-06 03:36:00,
2013-05-05 22:42:00,48.4,46.4,28.97,NW,315,1.2,1.2,93,0.00,,,0.09,WeatherDisplay:10.37,2013-05-06 03:42:00,
2013-05-05 22:47:00,48.4,46.4,28.97,NW,315,2.3,2.3,93,0.00,,,0.09,WeatherDisplay:10.37,2013-05-06 03:47:00,
2013-05-05 22:52:00,48.4,46.4,28.97,NW,315,1.2,1.2,93,0.00,,,0.09,WeatherDisplay:10.37,2013-05-06 03:52:00,
2013-05-05 22:57:00,48.4,46.4,28.96,NW,315,2.3,2.3,93,0.00,,,0.09,WeatherDisplay:10.37,2013-05-06 03:57:00,
2013-05-05 23:01:00,48.4,46.4,28.97,NW,315,3.5,3.5,93,0.00,,,0.09,WeatherDisplay:10.37,2013-05-06 04:01:00,
2013-05-05 23:02:00,48.4,46.4,28.97,NW,315,2.3,2.3,93,0.00,,,0.09,WeatherDisplay:10.37,2013-05-06 04:02:00,
2013-05-05 23:04:00,48.4,46.4,28.97,NW,315,2.3,2.3,93,0.00,,,0.09,WeatherDisplay:10.37,2013-05-06 04:04:00,
2013-05-05 23:09:00,48.2,46.6,28.97,NW,315,2.3,2.3,94,0.00,,,0.09,WeatherDisplay:10.37,2013-05-06 04:09:00,
2013-05-05 23:14:00,48.0,46.4,28.97,NW,315,3.5,3.5,94,0.00,,,0.09,WeatherDisplay:10.37,2013-05-06 04:14:00,
2013-05-05 23:19:00,48.0,46.4,28.97,NW,315,2.3,2.3,94,0.00,,,0.09,WeatherDisplay:10.37,2013-05-06 04:19:00,
2013-05-05 23:24:00,47.8,46.5,28.97,North,0,2.3,2.3,95,0.00,,,0.09,WeatherDisplay:10.37,2013-05-06 04:24:00,
2013-05-05 23:29:00,47.8,46.5,28.97,SW,225,1.2,0.0,95,0.00,,,0.09,WeatherDisplay:10.37,2013-05-06 04:29:00,
2013-05-05 23:35:00,47.7,46.3,28.97,NW,315,2.3,2.3,95,0.00,,,0.09,WeatherDisplay:10.37,2013-05-06 04:35:00,
2013-05-05 23:40:00,47.7,46.3,28.96,NW,315,2.3,2.3,95,0.00,,,0.09,WeatherDisplay:10.37,2013-05-06 04:40:00,
2013-05-05 23:45:00,47.7,46.6,28.96,NW,315,2.3,2.3,96,0.00,,,0.09,WeatherDisplay:10.37,2013-05-06 04:45:00,
2013-05-05 23:50:00,47.5,46.4,28.96,NW,315,2.3,2.3,96,0.00,,,0.09,WeatherDisplay:10.37,2013-05-06 04:50:00,
2013-05-05 23:55:00,47.3,46.2,28.96,NW,315,2.3,2.3,96,0.00,,,0.09,WeatherDisplay:10.37,2013-05-06 04:55:00,